Wind_Speed
28 28 27 27 27 27 26 26 25 25 24 24 23 22 21 21 20 20 19 18 17 17 16 16 16 15 14 13 13 13 13 13 13 13 14 14 14 14 14 15 16 17 17 17 19 19 20 20 19 16 12 5 8 14 20 24 25 26 24 24 25 25 28 28 28 28 27 27 25 24 23 22 22 22 22 21 21 20 19 19 18 19 19 19 19 19 19 19
30 30 30 29 29 29 29 28 28 28 27 27 26 25 25 24 23 22 21 21 20 19 18 17 17 17 15 14 14 14 13 13 13 12 12 14 14 13 13 13 14 15 16 16 17 18 19 20 20 18 15 10 5 6 16 21 24 25 23 24 23 21 24 25 25 25 23 22 21 20 19 20 20 21 21 21 20 18 18 18 17 17 16 18 19 19 19 19
33 33 32 32 32 32 31 31 31 30 30 29 28 28 28 27 27 26 25 23 22 21 21 20 18 18 17 16 15 16 16 14 14 13 12 13 14 13 12 12 12 13 14 15 15 16 17 18 19 19 18 15 11 4 8 17 22 21 19 20 19 18 21 22 22 22 20 19 18 18 17 18 19 19 19 19 17 17 16 16 15 14 15 17 17 17 16 16
35 35 35 35 34 34 34 33 33 33 32 32 31 30 30 30 29 29 28 27 26 24 23 22 21 20 18 18 16 16 17 17 15 15 14 13 13 14 13 12 12 12 12 13 14 15 16 17 18 19 19 18 15 11 4 11 18 18 16 17 18 17 18 18 18 18 17 17 16 15 15 16 17 17 17 16 15 14 13 13 13 13 14 14 14 13 12 12
38 38 37 37 36 36 36 35 35 35 34 34 33 32 32 32 31 31 31 30 29 28 27 25 24 23 21 19 18 17 18 19 18 17 16 15 14 14 14 13 12 11 11 12 13 13 14 15 17 18 19 18 17 14 9 3 12 18 17 15 17 17 15 15 15 15 15 14 13 13 14 16 16 15 14 12 11 11 11 11 11 11 11 10 9 9 8 8
40 39 39 38 38 37 37 36 36 35 35 34 34 33 32 32 32 32 32 31 31 30 29 28 27 26 24 22 20 18 18 20 20 18 18 18 16 15 15 14 12 12 11 11 12 12 13 14 15 16 18 18 17 16 13 8 3 14 18 17 18 17 14 13 13 12 12 11 13 14 15 15 13 12 10 9 10 9 9 9 8 8 7 7 6 6 7 7
41 40 40 39 39 38 37 37 36 36 36 35 34 33 32 32 32 31 31 31 31 31 30 29 28 28 27 25 22 20 19 21 22 19 20 20 18 17 17 16 14 13 12 11 11 12 12 12 13 14 16 17 17 17 15 13 8 1 10 17 20 17 12 11 10 10 10 11 13 13 11 10 9 9 9 9 10 8 7 6 6 6 5 5 6 7 8 8
42 42 42 42 41 41 40 40 39 39 39 38 37 36 35 34 33 32 32 32 32 31 31 30 29 28 28 26 25 23 21 24 24 21 23 22 20 20 19 18 17 15 14 12 11 12 12 11 11 12 13 15 16 17 16 15 12 7 0 8 14 15 12 10 10 10 10 10 11 9 8 8 9 9 10 10 9 7 6 6 6 5 5 5 6 7 8 9
45 45 45 45 45 45 44 44 43 43 43 42 41 40 39 38 37 36 35 35 34 34 33 32 30 29 28 27 25 24 24 27 27 23 24 24 22 22 22 21 20 18 16 14 12 12 12 12 10 11 12 13 14 16 15 15 13 10 5 0 6 11 12 11 11 10 9 9 8 8 8 9 10 10 11 10 9 8 7 7 6 6 6 7 7 7 8 10
48 48 49 49 49 48 48 48 47 47 47 46 45 44 43 42 41 40 39 38 37 37 36 35 34 32 30 28 26 25 26 29 29 26 25 26 25 24 24 23 22 21 19 17 15 13 12 12 11 9 10 11 12 13 14 14 14 12 9 4 2 6 9 10 9 9 8 8 8 8 9 10 10 10 10 10 11 10 9 8 7 7 7 7 5 5 6 8
49 50 50 50 50 50 50 50 50 50 50 50 49 48 47 46 45 44 43 42 41 40 39 38 37 36 34 31 29 27 27 29 29 28 27 28 27 26 25 25 24 24 22 20 18 15 13 13 12 10 8 9 9 11 12 13 13 12 11 8 3 3 6 7 8 9 8 8 8 8 9 9 10 11 11 12 13 11 9 8 7 7 6 5 4 3 5 7
50 51 51 51 51 52 52 51 51 52 52 52 51 51 50 49 48 47 46 45 44 43 43 42 41 39 37 36 34 31 29 29 28 28 29 29 29 28 27 26 26 26 25 24 22 18 16 14 13 12 9 7 7 8 9 11 12 12 12 10 7 3 4 7 7 8 8 9 9 9 9 10 10 11 12 13 13 10 8 6 5 5 4 4 4 3 5 6
52 53 53 54 54 54 54 54 53 54 54 53 53 53 52 52 51 50 49 49 48 47 46 45 44 43 41 40 39 36 33 32 29 28 30 30 31 31 29 28 28 27 27 27 25 22 19 16 14 14 11 7 6 6 7 8 10 11 11 10 8 5 2 6 7 8 9 10 10 10 10 10 10 11 12 12 11 9 8 6 4 4 3 4 4 4 6 9
54 54 55 55 56 56 56 56 56 56 57 56 56 55 55 54 54 53 52 51 51 50 50 49 47 46 44 43 43 40 38 36 32 30 30 31 32 33 32 31 30 30 29 29 28 26 23 20 16 15 14 10 7 4 4 5 7 8 9 9 8 6 3 3 7 8 8 9 9 9 9 9 10 11 12 11 10 9 8 7 5 4 4 4 6 7 9 11
54 54 55 55 56 57 57 57 58 58 58 59 58 58 58 57 57 56 55 54 53 52 52 51 50 50 48 47 47 45 42 40 37 34 33 32 33 34 33 33 33 33 31 31 31 29 26 24 20 17 16 13 10 6 4 3 4 5 6 7 7 7 5 3 4 5 6 7 7 7 8 9 10 12 13 12 12 11 9 7 6 6 6 6 8 10 11 12
51 51 52 53 54 55 55 56 56 57 58 59 59 59 60 60 59 59 58 57 56 55 54 53 52 52 50 50 50 49 47 44 42 39 36 35 34 34 35 34 35 35 34 33 33 31 30 28 24 21 18 16 14 10 6 4 3 3 3 4 4 7 7 6 6 6 5 5 6 7 7 7 9 12 14 15 14 12 11 9 8 9 10 10 11 13 15 16
44 44 45 46 47 49 50 51 52 53 54 55 56 57 59 59 60 60 60 60 58 58 57 56 55 53 52 52 52 52 51 49 46 43 40 38 37 36 36 35 35 36 36 36 35 34 33 31 28 25 22 19 17 15 10 6 4 3 2 3 3 4 7 7 7 8 8 6 6 8 9 9 12 15 16 16 15 13 13 13 13 13 14 15 15 15 16 18
37 38 38 39 40 42 43 44 46 47 48 50 51 52 54 55 57 58 60 60 60 59 58 58 58 56 54 54 53 54 54 52 50 47 45 43 41 40 38 37 36 36 37 38 38 38 36 35 31 28 27 24 21 18 14 10 8 5 4 3 3 2 2 5 6 7 7 7 7 8 10 12 14 16 15 15 15 15 17 17 17 16 17 17 16 15 15 15
35 36 36 36 36 38 39 40 41 42 43 44 46 47 49 51 52 53 55 57 58 58 58 59 60 58 57 56 54 55 56 55 53 51 48 47 45 43 41 40 38 37 37 38 40 40 39 37 34 32 32 28 23 20 17 15 12 9 7 6 5 5 3 4 6 6 4 4 6 7 10 13 14 15 14 14 15 17 18 18 17 16 15 15 14 14 13 13
35 36 36 35 35 36 37 38 39 40 40 41 42 43 45 47 48 49 52 53 54 55 55 57 59 59 59 58 57 57 57 56 55 54 52 51 49 47 45 43 42 40 38 38 40 41 42 39 36 37 37 32 26 24 22 19 16 13 11 9 8 7 6 7 7 6 5 3 3 5 8 11 13 14 14 15 16 17 17 16 15 15 14 14 13 13 13 13
37 38 37 37 36 36 37 37 38 38 39 39 39 40 41 43 44 45 48 50 50 51 52 53 55 57 57 58 59 60 59 58 57 56 54 54 52 50 49 47 46 44 42 41 40 41 41 39 39 42 41 37 31 27 26 24 21 18 15 13 12 10 9 10 9 8 7 6 5 5 6 9 11 13 15 16 17 17 15 14 14 15 14 13 13 13 13 13
40 40 40 40 39 38 39 39 38 39 39 38 38 38 38 39 40 41 43 46 47 47 49 50 51 54 54 55 58 60 60 59 59 58 58 56 55 54 53 51 49 48 46 43 41 40 40 39 43 46 45 40 35 31 29 28 26 22 19 17 16 14 13 12 11 10 9 8 7 7 7 8 10 12 14 16 17 16 14 13 15 16 16 15 13 13 13 12
41 42 42 42 41 40 41 41 41 41 40 39 39 38 38 38 38 38 39 41 44 44 45 47 49 51 51 52 55 57 58 59 59 60 60 59 58 57 55 54 53 52 49 46 43 42 41 42 46 49 47 43 39 35 33 32 30 27 24 21 20 19 17 15 13 12 11 10 9 8 9 10 10 12 13 15 16 16 14 14 16 17 17 17 15 15 14 12
42 43 43 43 42 40 41 42 42 43 43 42 41 40 39 38 37 37 37 37 40 41 40 41 45 48 49 50 52 54 56 58 58 59 61 61 61 59 58 57 56 54 52 50 48 46 45 46 49 50 47 44 41 38 35 34 33 32 29 26 24 23 21 19 15 14 13 12 11 10 10 11 11 12 13 14 15 16 15 15 16 17 18 18 17 16 14 13
44 44 45 44 42 40 39 40 41 43 44 44 44 43 41 40 39 38 37 36 38 39 38 36 38 43 46 48 49 51 54 55 56 57 60 62 62 61 61 60 57 56 56 55 52 50 49 51 51 49 47 45 43 41 38 37 37 36 34 31 29 27 25 21 19 18 16 15 14 13 13 13 13 13 13 14 14 15 16 16 16 17 17 16 16 15 14 13
46 46 47 47 45 42 40 39 40 41 42 43 44 44 43 42 42 41 40 38 38 40 38 35 35 38 41 44 47 50 51 52 54 55 58 61 61 62 63 62 60 60 59 58 56 53 52 54 53 50 50 49 45 43 40 39 40 39 37 36 34 31 28 25 23 23 21 18 17 16 16 15 15 15 15 15 15 16 17 16 15 16 15 15 14 13 13 13
49 49 51 51 50 48 45 42 42 42 42 44 44 44 44 43 44 44 43 41 39 42 43 39 37 37 39 40 43 47 48 50 52 53 56 59 59 60 62 63 64 63 62 61 58 56 57 57 53 52 54 52 48 46 43 41 41 41 41 41 39 36 32 29 28 27 25 22 20 18 18 17 17 17 17 17 17 17 17 17 16 15 15 15 14 14 14 14
53 53 54 55 54 53 51 47 45 45 46 47 46 45 45 45 45 45 45 44 41 43 47 45 41 40 40 40 41 43 45 48 50 50 54 58 58 58 60 63 66 66 65 62 60 61 62 60 56 57 58 55 52 49 46 45 43 44 46 45 43 40 35 33 33 31 29 26 22 19 19 19 18 18 18 19 20 20 19 18 18 17 17 16 15 16 17 17
57 56 57 59 58 57 56 53 50 49 49 50 50 49 49 49 47 46 46 44 42 44 48 50 47 44 43 42 41 40 41 45 47 48 52 55 56 57 59 62 65 68 67 64 64 65 64 62 60 61 60 57 57 54 50 48 46 47 50 48 46 43 39 37 36 35 33 29 23 21 21 21 21 20 20 21 21 21 21 21 21 21 21 20 19 19 20 20
60 59 59 61 62 61 60 59 55 53 53 53 53 53 53 53 52 50 47 44 45 46 47 51 51 49 49 46 43 41 39 41 42 45 49 52 54 56 58 60 62 66 68 67 67 68 67 66 63 62 60 60 61 58 53 51 50 51 51 49 47 45 42 40 38 38 35 29 25 24 24 25 25 22 22 23 23 21 21 22 23 23 23 22 21 20 20 21
62 62 62 63 64 65 64 63 61 59 57 55 56 56 56 56 55 54 51 48 51 50 48 52 54 52 52 51 47 44 41 41 39 41 45 48 52 54 57 59 60 63 67 69 71 71 70 68 66 65 64 64 64 61 56 55 54 54 52 49 48 48 46 43 40 39 35 29 28 28 28 29 28 25 25 26 24 22 22 22 23 23 23 22 21 21 20 20
65 65 65 65 66 68 68 67 66 64 61 59 60 59 58 58 56 55 55 54 56 54 51 55 57 55 55 53 50 49 47 44 41 41 42 44 47 51 55 58 58 61 65 68 72 74 72 70 70 69 69 68 67 64 60 59 58 57 55 50 48 50 49 43 40 39 34 30 32 33 33 32 30 30 29 28 26 23 23 23 23 24 23 22 23 22 21 21
68 68 69 68 69 71 72 71 71 69 66 65 64 62 62 59 56 56 58 59 59 57 56 58 59 59 58 55 54 52 51 50 46 44 43 42 43 46 51 57 58 59 63 66 71 75 74 72 72 72 71 70 70 68 63 62 62 60 59 53 49 51 50 44 42 39 36 35 36 39 39 34 32 34 32 30 29 27 26 25 25 24 24 24 24 22 21 22
72 72 72 72 72 74 75 75 75 74 72 70 68 67 65 60 57 59 61 61 62 61 60 61 62 63 62 59 59 55 53 55 51 47 47 45 43 43 46 52 57 59 63 65 68 72 76 75 73 74 75 73 72 70 67 67 66 63 63 60 56 54 51 47 45 42 42 43 43 44 40 33 34 38 37 35 33 31 29 28 27 27 26 25 24 22 23 24
76 76 75 75 75 76 78 79 79 79 78 75 74 72 66 61 62 64 64 64 66 65 64 64 65 66 65 64 64 60 56 58 54 52 53 49 45 44 44 47 53 58 62 63 65 69 74 77 77 78 78 76 75 74 73 73 70 67 69 68 60 55 52 50 49 47 50 50 47 45 41 37 40 43 42 39 35 34 33 29 29 30 29 26 25 25 24 25
81 81 80 80 79 79 81 82 83 84 83 81 79 74 68 66 67 69 69 68 68 68 69 68 67 68 69 67 67 64 61 61 58 55 56 55 51 48 46 46 49 54 59 63 64 67 71 75 79 80 79 78 77 78 78 77 71 70 74 70 60 57 57 54 52 53 55 52 47 46 44 42 44 45 44 41 38 38 35 30 31 34 32 29 28 28 27 28
85 86 86 85 84 84 85 86 87 87 87 87 83 77 72 71 71 72 73 72 72 72 72 72 70 71 71 70 70 68 65 65 62 57 58 60 56 53 51 49 47 49 55 62 65 65 68 73 79 81 81 81 81 82 81 79 75 75 76 70 64 64 63 58 56 57 55 49 47 48 48 46 45 46 46 43 41 39 35 33 35 36 35 33 32 31 30 30
89 90 91 90 89 90 89 90 91 91 91 90 86 80 77 77 76 75 77 76 76 75 74 75 75 75 74 72 73 73 71 69 66 62 61 62 60 58 56 52 49 49 52 59 65 65 65 70 76 80 82 84 84 85 84 82 79 77 75 72 71 71 66 62 60 57 53 49 49 50 50 49 46 47 49 47 43 38 34 36 39 39 38 37 35 34 33 32
93 94 95 93 93 94 93 92 93 93 94 92 87 84 82 82 81 80 81 81 80 78 75 78 80 79 77 75 76 78 77 73 71 68 64 63 64 62 59 56 54 52 53 57 62 64 64 67 73 78 82 86 87 87 85 82 80 79 77 75 76 75 70 66 63 58 55 55 53 51 52 50 46 49 53 50 45 39 36 40 44 41 39 39 39 38 36 35
97 98 98 96 95 97 95 94 95 95 95 93 89 88 87 86 86 85 85 85 86 83 79 81 84 83 81 80 79 80 80 79 77 73 68 67 67 64 61 62 60 57 56 57 59 64 65 64 69 76 81 84 87 86 83 82 82 81 81 78 78 77 74 70 66 63 62 58 54 54 52 50 49 52 56 54 48 42 39 44 47 43 42 43 42 41 40 38
101 101 101 99 97 100 100 98 98 98 98 96 93 92 92 91 91 90 89 89 90 88 85 86 88 87 85 84 83 81 82 83 80 77 74 71 69 67 64 66 66 60 57 57 57 62 65 63 67 74 77 79 82 85 85 86 87 86 85 82 80 80 79 76 71 69 65 58 56 57 53 51 53 55 57 58 53 45 42 46 49 47 46 46 44 43 42 41
105 104 105 103 101 103 105 103 101 102 101 100 98 98 98 97 96 95 94 94 93 92 91 91 91 91 90 88 86 84 85 86 83 80 80 76 71 71 69 67 68 64 59 59 59 59 63 65 66 70 73 75 79 85 88 90 91 90 89 86 84 84 84 82 77 72 68 62 60 60 55 53 56 57 58 61 57 48 44 47 50 50 49 47 46 45 45 44
109 108 110 109 107 108 109 108 107 106 106 104 103 104 104 103 102 100 99 98 97 96 96 96 95 95 93 92 90 88 88 89 87 83 84 82 75 73 71 67 68 69 65 63 63 61 62 65 65 66 70 73 76 82 87 91 93 92 91 88 86 87 86 84 79 75 73 68 65 64 58 54 58 60 60 63 60 53 49 49 52 53 51 49 47 47 47 47
114 114 115 116 115 114 114 114 114 114 113 111 110 110 109 109 107 106 105 103 101 101 101 101 100 99 97 96 95 93 92 92 90 87 87 87 81 75 72 70 69 72 72 68 65 62 59 62 64 66 68 69 73 78 83 88 91 92 91 88 87 89 87 83 82 81 77 71 68 68 61 57 61 63 62 64 64 58 53 51 54 54 51 50 49 49 50 49
121 121 121 123 123 123 122 121 122 122 121 120 118 117 116 114 113 112 110 109 107 106 106 106 105 103 102 101 99 97 96 95 94 92 90 90 86 78 74 72 71 75 77 71 65 61 58 58 62 64 66 66 68 73 78 83 87 90 92 91 90 91 88 84 85 86 79 73 73 71 63 61 64 64 63 65 65 62 57 55 57 56 53 53 51 50 52 53
128 129 130 131 132 131 129 129 130 130 129 127 125 123 122 120 119 118 116 114 112 111 111 111 110 108 107 106 104 101 99 98 97 95 93 91 89 83 77 75 76 79 78 72 67 62 58 57 58 60 64 66 67 70 75 81 87 91 93 94 94 94 91 89 90 89 82 78 77 73 67 67 68 65 65 66 65 64 63 61 60 58 56 55 52 52 55 55
136 136 137 138 139 138 136 136 137 137 135 133 131 128 127 126 125 123 121 119 117 116 116 115 115 113 111 109 108 105 103 102 100 98 95 93 91 86 80 78 80 80 77 73 70 65 60 58 57 57 62 67 68 69 73 79 86 89 90 93 96 97 95 94 94 91 85 83 82 77 73 73 71 67 67 67 67 68 68 65 62 60 58 56 55 57 59 57
142 141 142 143 143 142 141 141 141 141 140 138 136 133 132 130 129 127 125 123 122 121 121 120 118 117 115 113 111 109 107 105 103 100 98 96 93 88 83 80 81 79 76 75 73 68 63 59 57 57 59 64 68 69 71 76 82 86 87 90 95 98 98 97 95 91 89 88 85 80 78 76 74 71 69 68 67 70 73 70 66 63 61 59 60 61 60 57
144 143 143 143 144 144 143 142 142 142 142 141 138 136 135 133 132 130 129 128 126 125 124 123 121 120 119 116 114 112 110 107 105 103 100 98 95 90 86 82 81 79 77 77 76 70 63 60 60 59 57 61 68 70 70 72 77 83 86 88 92 97 99 99 96 93 92 92 87 84 82 80 78 76 72 69 69 72 76 75 70 68 66 64 65 64 61 59
143 143 143 142 143 143 143 143 142 142 142 141 139 137 136 135 134 132 131 129 128 127 126 125 125 123 121 118 115 113 111 109 107 105 104 101 97 93 89 84 80 79 78 79 77 70 64 63 63 61 58 59 64 69 70 70 72 78 84 87 90 94 98 100 98 95 94 93 90 87 86 83 81 79 74 72 72 74 77 77 74 72 70 69 68 63 61 62
134 133 133 133 133 134 135 137 137 137 137 137 137 136 135 135 134 132 131 129 128 129 129 128 126 124 121 118 115 114 113 113 112 108 105 101 96 92 88 83 80 80 79 79 76 69 65 65 65 63 59 57 61 66 68 70 72 75 79 84 86 89 94 99 99 97 96 94 92 90 88 84 83 81 78 75 74 74 76 78 78 76 73 72 69 64 63 63
116 116 115 115 116 117 119 121 122 123 123 125 127 128 127 128 129 128 129 129 129 130 130 128 125 123 121 119 118 118 118 115 111 107 102 96 92 90 86 81 80 80 78 76 75 71 67 66 67 66 60 57 59 64 66 70 74 73 73 77 82 86 89 94 96 98 98 97 94 92 88 84 84 85 82 78 76 75 76 79 81 80 77 75 71 67 66 65
Wind_Direction
262 263 264 266 267 268 269 271 272 273 274 275 275 275 275 276 276 278 281 284 287 289 293 298 303 309 315 320 324 330 335 339 346 350 352 357 7 13 19 24 27 28 32 39 46 48 45 41 39 43 60 98 190 204 209 210 208 209 216 224 231 241 243 241 240 239 238 238 241 241 241 239 236 234 234 235 237 241 246 249 249 249 250 250 250 249 249 250
264 264 265 266 267 268 269 270 271 272 272 273 275 276 276 277 276 277 278 280 282 284 286 289 293 299 304 309 314 317 323 327 331 338 342 345 351 359 6 13 19 22 24 29 36 42 45 43 37 35 44 62 95 195 205 209 210 206 207 215 226 240 241 240 240 239 238 237 238 237 236 234 233 233 234 236 239 244 246 246 247 250 253 255 254 251 251 251
263 264 265 265 266 267 268 269 270 271 271 272 273 274 275 276 277 277 277 277 277 279 281 283 286 289 294 298 303 307 311 315 319 324 329 334 336 342 351 358 7 13 16 20 26 33 40 43 39 33 32 43 59 85 195 207 209 205 205 209 221 237 236 236 238 237 236 234 233 234 234 234 234 234 236 239 241 242 243 245 249 256 259 257 254 251 249 249
264 264 264 265 266 266 267 268 269 270 270 271 271 272 273 274 276 276 277 277 276 276 276 278 279 281 285 289 293 297 301 304 307 310 316 322 324 327 334 342 351 360 6 10 16 24 31 38 40 35 28 32 46 60 119 203 208 205 204 209 224 235 231 230 232 232 232 231 231 233 237 240 240 240 239 240 243 245 250 255 259 262 260 254 250 247 243 242
264 264 265 265 265 266 266 267 268 268 268 269 269 270 271 272 273 274 275 276 276 275 275 275 275 276 277 279 284 287 292 296 297 300 305 309 312 315 319 326 335 344 352 358 4 14 23 31 37 37 31 27 35 49 65 164 209 208 206 216 232 231 220 219 221 222 225 228 234 236 240 241 239 237 237 240 247 252 257 257 255 254 251 243 239 235 230 227
264 264 265 265 265 266 266 266 267 267 267 267 267 268 268 269 270 271 272 272 273 274 273 273 273 273 273 273 275 279 284 287 289 293 296 298 301 304 308 312 319 328 337 345 352 359 11 22 30 37 35 27 27 39 49 56 183 212 213 219 224 217 210 214 213 216 223 229 234 233 232 231 230 229 234 241 242 239 239 240 240 240 235 227 223 216 211 207
265 265 265 265 266 266 266 266 266 266 266 266 266 266 266 266 267 268 269 270 270 271 271 271 270 270 271 270 269 271 275 276 280 286 286 289 293 295 299 303 307 313 321 331 339 345 355 11 21 30 37 31 25 31 42 45 44 202 219 220 217 207 203 215 217 220 224 227 229 225 224 223 221 221 221 218 215 211 213 222 229 227 218 214 213 209 207 203
267 267 267 267 267 267 267 267 267 267 267 267 267 266 266 265 265 265 266 267 268 268 269 269 268 268 268 268 267 266 267 268 271 275 278 282 285 288 293 296 299 302 308 316 324 333 339 353 10 20 31 35 27 26 36 42 39 35 313 219 212 202 202 219 225 226 225 225 224 216 218 217 207 204 202 197 193 192 199 210 217 214 211 215 215 217 217 216
267 267 267 268 268 268 268 268 267 267 267 267 267 266 266 265 265 264 264 264 266 266 267 267 267 266 266 266 265 263 262 262 265 266 271 277 279 283 288 290 294 296 299 304 311 319 325 334 351 9 20 32 32 25 29 40 41 36 30 360 201 195 203 220 224 225 222 216 210 198 203 205 197 195 192 188 185 182 185 193 199 203 207 213 215 226 232 231
267 267 268 268 268 268 268 268 268 267 267 267 266 266 265 265 265 264 264 263 263 264 265 265 266 265 265 264 262 260 258 259 262 263 266 271 274 277 282 285 288 290 293 296 299 305 312 318 329 350 9 21 32 29 25 32 41 40 36 39 175 192 201 215 214 211 210 205 198 191 195 194 189 194 194 188 182 176 178 186 196 202 204 207 209 228 244 241
270 269 269 269 269 268 268 268 268 268 267 267 266 266 265 265 264 264 263 263 262 262 263 264 264 264 264 263 261 258 257 257 260 262 262 264 268 271 274 278 281 284 287 289 291 294 298 305 312 324 348 7 22 30 25 25 34 41 40 41 59 172 200 209 203 201 201 200 196 188 187 187 186 190 193 190 179 171 176 188 201 204 204 209 211 234 247 235
272 271 271 271 270 270 269 269 268 268 268 267 266 266 265 264 263 263 263 263 262 262 262 262 263 263 263 263 261 258 256 256 257 259 259 259 262 263 266 269 273 277 280 283 284 286 289 293 299 306 320 345 6 21 27 21 25 37 42 40 47 96 203 216 204 199 199 198 195 189 188 187 186 186 188 186 177 171 175 184 201 204 208 216 215 228 225 201
272 272 272 272 272 271 271 270 270 270 269 268 267 266 266 265 263 262 262 262 262 261 261 261 261 261 261 261 261 259 256 255 253 254 256 257 257 258 259 262 265 269 273 276 279 280 281 283 287 293 300 312 337 4 20 22 19 26 40 42 40 59 173 214 207 198 193 193 192 192 192 191 192 193 190 185 178 175 172 173 189 200 216 220 199 192 187 166
272 272 272 272 272 272 272 272 271 271 270 270 269 268 267 266 265 263 262 261 260 260 260 260 260 260 260 259 260 259 257 256 253 251 253 254 255 255 255 256 259 262 266 269 273 274 276 276 277 281 287 292 301 328 357 16 21 14 28 45 46 48 65 192 206 205 195 193 198 203 205 204 207 207 201 191 180 172 164 160 174 184 195 195 180 173 169 158
272 272 272 272 272 272 272 272 272 271 271 271 270 269 268 267 266 265 263 262 260 260 259 259 259 259 258 258 258 258 256 255 253 250 250 251 253 254 254 253 254 257 259 263 267 270 271 271 271 272 276 280 282 288 305 342 13 7 12 34 53 61 60 93 155 187 190 190 197 207 209 208 211 208 200 186 170 159 152 151 159 160 160 168 173 168 159 152
274 273 273 273 273 272 272 272 271 271 271 271 270 270 269 268 268 266 265 263 261 260 259 258 258 257 257 257 257 257 255 254 253 251 249 249 250 252 253 252 252 254 257 259 262 265 267 268 268 267 267 269 273 272 270 284 319 346 354 3 40 72 69 71 96 113 133 158 172 181 181 180 185 183 175 165 155 148 143 142 144 143 142 149 159 157 149 144
275 275 274 275 275 274 273 273 272 271 271 271 270 270 269 269 268 267 266 264 263 261 260 259 257 256 256 256 256 256 255 253 252 251 249 247 248 249 251 252 252 253 254 256 258 260 262 264 264 265 264 263 264 264 260 257 265 287 310 324 346 64 79 78 85 96 107 122 145 156 153 151 153 153 151 147 143 140 136 133 131 132 133 139 146 147 146 144
274 274 274 274 274 275 274 274 274 273 273 272 271 271 270 269 268 268 267 266 264 262 261 259 258 256 255 254 254 255 255 254 252 250 248 247 246 247 248 250 250 250 251 253 255 257 259 261 262 264 263 259 257 257 257 253 248 252 263 277 295 296 112 111 104 99 106 113 120 133 142 148 148 142 137 136 137 137 133 130 130 131 135 139 144 147 149 150
274 273 272 272 272 273 273 273 274 274 273 274 273 272 272 271 270 269 268 266 265 264 262 261 259 257 255 253 252 253 253 253 252 250 248 246 244 244 245 247 248 248 248 250 253 255 256 258 260 260 259 256 254 255 255 252 246 239 244 248 249 259 251 192 149 126 118 121 118 123 137 150 153 145 135 136 141 140 136 133 134 138 143 147 150 152 153 153
276 275 274 273 272 273 272 272 272 273 272 273 273 273 273 272 272 271 270 268 267 266 264 262 260 258 256 254 252 251 251 251 251 250 247 246 244 243 242 244 245 246 246 247 249 252 254 256 257 257 258 256 254 253 254 251 246 239 238 242 243 242 248 241 212 174 166 171 154 139 142 150 154 149 142 144 149 149 144 140 142 148 153 156 158 159 160 159
279 279 278 277 275 275 274 273 272 271 271 271 271 272 272 272 272 272 271 270 269 268 266 264 262 260 257 256 254 251 250 249 249 249 247 246 244 242 241 241 243 243 244 244 246 249 253 254 254 254 255 255 252 250 251 251 246 240 235 237 241 239 239 244 242 220 197 193 193 185 169 159 156 154 152 154 158 160 157 151 151 156 160 163 166 166 167 167
279 280 280 280 279 279 278 276 274 272 270 269 269 268 269 270 271 271 271 271 270 270 269 267 265 262 259 257 255 253 251 248 247 247 247 245 244 242 240 239 240 241 241 241 244 247 251 251 250 252 253 253 251 249 249 250 248 243 238 236 238 237 236 238 242 239 223 207 199 195 191 181 170 165 161 162 167 171 172 163 158 160 162 165 167 168 167 167
278 279 280 281 281 282 282 281 279 277 274 272 270 268 267 267 268 268 269 271 270 269 270 270 268 265 261 259 257 255 253 250 247 246 246 245 243 242 240 238 237 238 239 239 240 243 246 246 247 250 251 251 250 248 247 249 250 247 241 237 236 236 234 234 236 238 237 227 213 199 196 195 188 181 174 171 172 176 177 171 165 165 166 167 168 169 169 168
277 278 279 280 282 283 283 283 283 283 281 278 275 273 271 269 267 267 267 269 270 268 267 270 271 268 264 261 259 257 254 252 248 246 245 244 242 241 240 239 237 236 237 237 238 240 241 244 246 249 251 251 250 248 247 248 250 250 245 240 237 236 233 232 233 235 237 236 229 214 202 198 196 193 189 183 180 180 179 177 173 171 170 169 169 169 171 173
277 278 279 280 282 282 282 283 282 282 283 283 281 279 278 276 274 272 270 270 271 270 265 266 270 270 267 264 262 259 256 254 250 247 245 243 241 240 240 239 237 235 236 236 235 237 240 243 246 249 251 251 250 248 246 246 247 248 248 244 239 236 234 232 231 232 232 233 232 227 215 204 198 198 199 195 192 189 187 185 181 178 176 174 173 175 177 181
278 279 279 280 281 282 281 281 280 279 281 282 282 282 282 282 281 279 277 275 276 276 270 264 265 269 269 266 264 261 259 257 253 249 247 245 241 239 239 238 237 235 234 234 233 234 238 242 245 248 250 249 248 247 245 244 245 247 248 248 243 237 234 233 232 231 230 229 229 229 226 218 208 203 201 200 200 200 198 194 191 188 186 186 188 192 194 197
278 278 279 280 280 281 280 280 279 279 279 278 279 280 281 282 283 283 283 281 281 283 279 271 265 266 267 267 265 263 262 260 255 252 250 248 243 240 238 237 237 235 233 232 232 233 236 239 241 244 247 248 247 246 244 242 242 244 245 246 245 240 234 233 235 232 230 228 225 227 230 229 223 214 208 205 204 206 204 200 201 200 197 198 203 211 216 217
278 279 279 279 280 280 280 279 278 278 278 278 279 279 279 279 279 280 282 283 285 285 283 279 272 268 267 266 265 264 262 261 259 256 253 250 246 242 239 237 236 235 233 232 231 232 235 236 237 240 243 244 245 243 242 240 238 239 241 243 243 242 236 234 235 234 231 229 224 225 232 233 231 225 218 214 210 208 207 204 205 207 206 205 211 225 233 232
279 279 279 280 280 280 280 279 278 277 277 277 278 279 279 278 278 278 278 281 284 282 281 281 277 273 271 268 265 263 261 261 261 260 258 254 250 245 241 237 236 235 233 231 231 231 233 234 234 238 242 243 244 242 240 240 237 236 238 240 241 242 239 236 236 235 234 230 226 227 233 235 234 230 227 224 219 214 211 209 208 210 213 212 213 227 240 243
281 280 280 280 280 280 279 279 278 276 275 275 276 276 277 278 279 279 278 280 281 279 279 280 278 276 275 272 267 263 261 261 260 260 260 258 255 251 246 239 235 235 234 231 231 230 231 232 233 237 240 242 244 243 241 241 240 238 238 238 240 242 241 238 236 236 235 232 230 230 233 236 234 231 231 230 227 221 216 215 214 215 218 217 215 221 235 246
282 281 281 280 280 280 279 278 277 275 274 274 273 274 275 276 277 280 281 281 280 279 279 279 278 276 275 274 271 268 265 260 258 259 259 259 258 256 252 246 238 235 233 231 231 230 228 230 231 234 236 238 241 242 241 241 242 241 240 238 239 242 242 240 238 238 237 235 234 234 233 236 237 234 234 234 231 227 223 221 220 220 221 221 222 220 223 238
281 281 280 279 279 279 278 277 276 274 274 273 272 272 272 273 276 279 279 278 278 279 279 278 278 277 275 274 274 273 271 265 260 260 258 257 258 257 256 253 244 238 234 231 231 230 227 227 229 232 234 235 238 239 239 239 241 242 241 238 237 240 242 241 240 241 240 238 239 239 234 234 238 237 236 237 236 233 232 230 227 226 227 225 225 225 223 232
280 280 279 278 278 278 277 277 276 275 273 272 272 271 270 272 275 275 274 274 275 277 278 277 277 276 275 274 273 272 274 272 267 262 259 257 256 256 256 256 251 245 238 232 230 231 228 226 228 231 233 235 237 239 239 239 240 241 241 239 236 238 240 240 240 242 242 239 239 240 237 232 237 241 238 237 237 236 235 234 233 232 231 230 230 230 229 233
279 279 278 278 277 277 277 276 276 275 273 272 271 270 270 272 273 270 270 271 272 273 275 276 276 276 275 274 273 270 271 272 269 266 265 260 256 255 255 256 255 251 245 236 231 230 229 226 226 229 231 232 235 237 237 237 238 238 240 238 233 234 236 237 238 240 240 238 237 239 239 235 238 241 239 236 236 237 236 235 237 237 235 234 236 234 234 237
279 278 278 277 276 276 276 275 275 274 272 271 269 269 270 272 270 269 268 268 269 271 272 273 274 275 274 274 272 270 269 269 267 268 269 265 260 257 254 255 255 254 251 244 235 231 229 227 225 227 229 230 232 234 234 235 235 236 239 236 233 232 233 233 234 234 236 236 235 238 239 237 237 240 240 238 237 238 238 237 240 243 241 238 239 238 237 238
279 278 277 276 276 275 274 273 273 272 272 270 268 268 270 269 268 268 268 267 268 268 269 270 271 272 272 272 271 270 270 269 267 267 270 269 266 262 258 256 255 254 254 250 242 234 230 228 226 227 228 229 231 232 234 235 234 235 238 237 235 235 233 230 230 231 233 234 234 236 237 236 238 241 242 241 239 240 241 240 241 245 246 242 241 242 241 240
280 279 278 277 277 275 274 273 272 271 271 270 269 269 268 267 266 266 267 266 266 266 267 268 268 269 270 271 272 271 270 270 268 267 269 270 268 266 263 259 256 254 254 252 248 239 232 229 226 226 227 227 229 231 233 234 233 234 237 237 236 235 233 229 229 230 232 232 233 236 237 237 238 242 244 242 241 242 242 242 242 245 247 246 245 245 245 246
280 279 278 278 277 276 274 273 272 271 271 270 270 269 267 266 264 264 264 264 264 264 266 268 268 268 268 269 271 271 270 270 269 268 268 269 269 268 265 261 258 256 254 252 251 244 236 232 228 225 226 227 228 230 231 232 233 234 236 237 237 236 233 230 229 230 232 232 233 235 236 237 238 242 245 244 242 242 241 243 243 244 246 248 248 247 248 249
279 278 277 277 276 274 273 272 272 271 270 270 270 269 267 265 263 262 263 263 264 264 264 266 266 266 266 267 268 269 270 270 270 269 268 268 268 267 266 265 261 258 255 253 252 248 241 236 232 226 225 227 227 228 230 232 233 234 234 235 237 237 235 233 231 230 230 229 230 233 235 237 236 239 243 243 242 240 239 242 245 245 245 248 248 248 249 249
279 278 277 276 275 274 273 271 270 270 270 270 269 268 267 265 264 263 263 263 264 264 264 264 264 264 265 265 265 267 268 269 269 269 269 268 267 265 266 267 264 259 256 254 251 250 245 239 236 230 224 226 228 227 229 232 232 234 234 234 236 238 237 235 233 231 230 228 228 230 233 234 234 236 242 244 242 239 236 240 245 246 245 246 247 248 249 249
278 277 276 275 274 273 272 271 270 270 270 269 269 268 267 265 264 263 262 263 263 264 264 264 264 264 264 264 264 265 266 267 268 269 269 267 267 265 264 264 264 260 256 255 253 251 248 243 241 236 226 224 228 228 228 230 231 231 232 232 234 236 237 236 233 233 232 230 229 231 230 231 233 235 240 243 242 238 235 238 243 244 244 246 247 248 249 250
277 276 275 274 272 271 271 270 269 269 268 268 268 267 266 265 264 263 263 262 263 263 264 263 263 264 263 263 263 263 264 265 266 267 268 268 266 264 263 262 264 262 258 256 254 251 249 245 244 242 232 224 226 228 227 229 230 230 231 231 231 233 235 235 232 233 234 232 231 231 229 229 233 235 237 241 242 239 236 237 241 244 245 247 247 248 249 250
275 274 273 272 271 270 269 269 268 267 267 266 266 265 265 264 264 263 263 262 262 262 262 262 262 262 262 262 261 261 261 263 265 265 267 267 265 263 262 261 262 262 259 257 254 250 249 247 245 245 239 227 225 227 227 228 230 230 230 231 232 233 234 235 234 233 233 231 231 232 229 226 231 234 236 240 242 239 236 236 240 243 245 247 248 249 250 250
273 272 271 270 269 268 268 267 267 266 265 264 263 263 263 263 263 262 262 262 261 261 262 262 262 262 262 262 261 260 261 262 263 263 264 265 265 263 261 260 260 260 259 257 254 251 249 248 246 245 243 234 226 226 228 229 230 231 231 232 233 234 235 235 237 235 232 231 231 232 230 227 228 232 235 238 240 240 238 237 240 242 245 246 248 248 249 250
271 271 270 269 268 267 266 266 265 265 264 263 262 262 261 261 261 261 261 261 261 261 261 261 261 261 261 261 261 261 261 261 262 262 262 263 264 262 261 260 258 257 257 257 256 253 249 248 248 246 246 241 232 228 228 229 230 230 231 231 231 234 234 234 237 237 233 232 234 233 232 230 229 230 233 237 240 241 240 238 239 242 243 245 247 248 249 250
271 270 270 269 268 267 267 266 265 264 264 263 263 262 262 261 260 260 260 260 260 260 260 260 260 260 260 261 261 261 261 261 261 261 261 262 263 262 260 258 256 254 256 258 257 254 251 249 248 246 246 244 238 231 228 228 229 229 229 229 229 231 232 231 234 235 233 233 234 233 232 232 232 231 232 235 239 241 241 239 239 240 242 245 247 248 248 250
271 270 270 269 268 268 267 266 266 265 265 264 264 263 262 261 260 260 259 259 258 258 258 258 258 259 259 259 259 259 260 260 260 260 260 260 261 260 258 256 255 254 255 257 257 255 253 250 247 245 244 244 242 236 230 229 229 228 228 229 229 229 230 230 231 233 232 232 233 232 231 232 233 232 231 234 237 239 241 241 240 240 242 244 245 245 247 250
272 271 270 269 269 268 268 267 266 266 265 265 264 263 262 261 260 260 259 258 257 256 256 257 257 257 257 257 257 257 257 258 258 259 259 259 259 258 257 255 254 254 254 255 255 254 252 250 248 245 243 243 244 241 235 231 230 229 228 229 230 230 230 230 230 231 232 232 231 231 232 232 233 232 231 232 234 237 240 241 240 240 241 242 242 243 246 249
273 272 271 270 270 269 268 267 266 266 265 265 264 263 262 261 260 259 258 257 256 256 256 256 255 255 255 254 254 255 255 256 257 257 257 257 257 257 256 254 253 253 252 252 253 253 251 251 250 246 243 241 243 243 240 235 233 230 228 228 230 230 230 230 230 230 232 232 231 231 232 232 233 233 231 231 231 234 239 241 240 240 240 240 240 241 244 247
274 273 272 271 270 269 268 267 266 265 265 265 264 263 262 261 260 259 258 257 256 256 255 254 254 253 253 254 254 255 255 255 254 254 255 255 255 255 255 253 252 252 251 251 252 252 251 251 250 247 243 240 242 244 243 239 236 233 230 229 229 230 230 229 229 229 231 232 231 231 232 232 233 234 233 232 230 231 237 241 241 240 240 240 240 241 243 246
274 273 272 270 269 268 267 266 265 264 264 263 263 262 261 260 259 258 257 256 255 254 253 253 253 253 253 254 254 254 253 252 251 252 253 254 255 255 254 253 251 250 249 249 251 251 250 250 250 248 246 242 241 242 243 242 239 235 232 230 230 231 231 230 229 229 230 232 231 231 232 233 235 236 234 233 232 231 234 239 242 243 242 242 242 242 243 245
273 271 270 269 268 267 266 265 264 263 263 262 261 260 260 259 258 257 255 254 253 252 252 252 252 251 251 250 250 249 249 250 252 253 256 257 258 257 256 253 251 250 250 250 251 250 249 250 250 249 247 244 242 241 241 241 240 236 233 232 232 231 231 231 230 229 229 230 231 231 231 232 234 235 235 234 234 234 234 237 242 244 245 246 245 244 243 245
Height
10998 10999 10999 10999 10999 11000 11000 11000 11000 11000 11001 11001 11001 11002 11002 11002 11002 11002 11002 11002 11002 11002 11002 11001 11001 11002 11002 11001 11001 11000 10999 10999 10999 10998 10997 10996 10996 10995 10994 10993 10992 10991 10990 10990 10989 10988 10987 10987 10986 10985 10983 10983 10981 10981 10980 10980 10980 10982 10983 10982 10980 10980 10981 10982 10982 10982 10982 10983 10983 10984 10984 10985 10986 10986 10987 10987 10987 10987 10987 10987 10987 10987 10987 10986 10986 10987 10986 10986
10996 10996 10997 10997 10997 10998 10998 10998 10998 10998 10999 10999 10999 10999 10999 10999 11000 11000 11000 11001 11001 11001 11001 11001 11001 11001 11001 11001 11000 11000 10999 10998 10998 10998 10997 10996 10996 10995 10995 10993 10992 10991 10990 10990 10989 10989 10988 10986 10986 10984 10983 10982 10980 10978 10978 10978 10978 10979 10979 10979 10978 10978 10979 10980 10980 10980 10981 10981 10982 10982 10983 10984 10984 10985 10985 10986 10986 10986 10986 10986 10986 10985 10985 10985 10985 10985 10985 10985
10994 10994 10994 10995 10995 10995 10996 10996 10996 10996 10996 10997 10997 10997 10997 10997 10997 10998 10998 10999 10999 10999 10999 11000 11000 11000 11000 11001 11000 10999 10999 10998 10998 10997 10997 10996 10995 10995 10995 10994 10993 10992 10991 10990 10989 10989 10988 10986 10985 10984 10982 10981 10979 10977 10976 10976 10977 10977 10977 10977 10977 10977 10977 10978 10978 10979 10979 10980 10980 10981 10982 10982 10983 10983 10984 10984 10984 10984 10984 10984 10984 10984 10984 10983 10983 10984 10984 10983
10991 10991 10992 10992 10993 10993 10993 10993 10994 10994 10994 10994 10995 10995 10995 10995 10995 10995 10996 10996 10997 10997 10998 10998 10998 10999 10999 10999 11000 10999 10998 10998 10997 10996 10997 10996 10995 10994 10994 10994 10993 10992 10991 10990 10989 10989 10988 10987 10985 10984 10982 10981 10979 10977 10976 10976 10976 10976 10976 10976 10976 10976 10975 10976 10977 10978 10978 10978 10979 10979 10980 10980 10981 10981 10982 10982 10982 10982 10982 10982 10982 10982 10982 10982 10982 10982 10982 10982
10988 10988 10989 10989 10989 10990 10990 10991 10991 10991 10991 10992 10992 10993 10993 10993 10993 10993 10993 10993 10994 10994 10995 10996 10996 10997 10998 10998 10999 10999 10998 10997 10996 10996 10995 10995 10995 10994 10993 10993 10993 10992 10991 10990 10989 10988 10988 10987 10986 10984 10982 10981 10979 10977 10976 10976 10975 10975 10974 10974 10975 10975 10975 10975 10976 10977 10977 10977 10978 10978 10978 10979 10979 10979 10979 10980 10980 10980 10980 10980 10980 10981 10981 10981 10981 10981 10981 10981
10984 10985 10985 10986 10986 10987 10987 10987 10987 10988 10988 10988 10989 10990 10990 10990 10990 10990 10990 10990 10991 10991 10992 10993 10994 10995 10996 10997 10997 10998 10997 10996 10995 10995 10994 10994 10994 10993 10992 10992 10992 10992 10991 10990 10989 10988 10988 10987 10986 10985 10983 10981 10979 10977 10976 10975 10974 10974 10973 10973 10974 10974 10974 10974 10975 10976 10976 10976 10977 10977 10977 10977 10977 10978 10978 10978 10979 10979 10979 10979 10979 10980 10980 10980 10980 10980 10980 10980
10981 10981 10982 10982 10983 10983 10983 10984 10984 10984 10984 10985 10986 10987 10987 10988 10988 10988 10988 10987 10988 10988 10989 10990 10991 10992 10993 10995 10996 10996 10997 10994 10993 10994 10993 10992 10992 10992 10992 10991 10991 10991 10991 10990 10989 10988 10987 10987 10986 10985 10984 10982 10980 10978 10976 10975 10974 10974 10973 10972 10972 10973 10973 10973 10974 10974 10975 10975 10976 10976 10976 10976 10976 10976 10977 10977 10978 10978 10978 10979 10979 10980 10980 10980 10980 10980 10981 10981
10977 10977 10978 10978 10979 10979 10980 10980 10980 10980 10981 10981 10982 10983 10984 10984 10985 10985 10985 10985 10985 10985 10986 10987 10988 10989 10990 10992 10993 10994 10995 10992 10991 10993 10992 10991 10991 10991 10991 10990 10990 10990 10990 10990 10989 10988 10987 10986 10986 10985 10984 10983 10981 10979 10977 10975 10974 10973 10973 10972 10972 10972 10972 10972 10973 10974 10974 10975 10975 10974 10975 10975 10975 10976 10976 10977 10977 10977 10978 10978 10979 10979 10980 10980 10980 10981 10981 10981
10973 10973 10973 10973 10974 10974 10975 10975 10976 10976 10976 10977 10978 10979 10980 10980 10981 10982 10982 10982 10982 10982 10983 10983 10984 10986 10987 10989 10990 10992 10992 10990 10989 10991 10990 10990 10990 10989 10990 10989 10989 10989 10989 10989 10989 10988 10987 10986 10985 10985 10984 10983 10982 10980 10978 10976 10975 10974 10973 10972 10972 10972 10972 10972 10972 10973 10973 10974 10974 10973 10974 10974 10975 10975 10975 10976 10976 10977 10978 10978 10979 10979 10979 10980 10980 10980 10981 10981
10968 10968 10968 10968 10968 10969 10969 10970 10970 10971 10971 10972 10973 10974 10975 10976 10976 10977 10978 10979 10979 10979 10979 10980 10981 10982 10984 10985 10987 10988 10988 10987 10987 10989 10989 10989 10989 10988 10988 10988 10988 10988 10988 10988 10988 10988 10987 10986 10985 10984 10984 10983 10982 10981 10980 10978 10976 10975 10974 10973 10972 10972 10971 10971 10972 10972 10972 10973 10973 10973 10973 10974 10974 10974 10975 10975 10976 10976 10977 10978 10978 10979 10979 10979 10979 10979 10980 10980
10962 10962 10962 10962 10963 10963 10964 10964 10964 10965 10965 10966 10967 10968 10969 10970 10971 10972 10973 10974 10975 10975 10976 10976 10977 10978 10980 10981 10983 10984 10985 10985 10986 10987 10987 10987 10987 10987 10987 10987 10986 10986 10986 10987 10987 10987 10987 10986 10985 10984 10984 10983 10982 10981 10981 10979 10977 10976 10975 10973 10972 10972 10971 10971 10971 10971 10972 10972 10972 10972 10973 10973 10973 10974 10975 10975 10975 10976 10976 10977 10978 10978 10978 10978 10978 10978 10978 10978
10956 10956 10956 10956 10956 10956 10957 10958 10958 10958 10958 10959 10961 10962 10963 10964 10966 10967 10968 10969 10970 10971 10971 10972 10973 10974 10976 10977 10978 10980 10981 10982 10983 10984 10984 10984 10984 10985 10985 10984 10984 10984 10984 10985 10985 10986 10986 10986 10985 10984 10984 10983 10982 10982 10981 10980 10978 10977 10975 10974 10973 10972 10971 10971 10971 10971 10972 10972 10972 10972 10972 10973 10973 10974 10975 10975 10975 10975 10976 10976 10977 10977 10977 10977 10977 10977 10978 10978
10950 10950 10950 10950 10950 10950 10950 10951 10952 10952 10952 10953 10954 10955 10956 10957 10959 10961 10962 10963 10964 10965 10966 10968 10969 10970 10972 10973 10973 10975 10978 10978 10981 10981 10981 10981 10981 10982 10983 10982 10982 10982 10982 10982 10983 10984 10985 10985 10984 10984 10983 10983 10982 10982 10981 10980 10979 10978 10976 10974 10973 10972 10972 10971 10971 10971 10971 10972 10972 10972 10972 10973 10974 10974 10975 10975 10975 10975 10975 10975 10976 10976 10977 10977 10977 10977 10977 10978
10944 10944 10944 10944 10943 10944 10944 10945 10945 10945 10945 10946 10947 10948 10949 10950 10951 10954 10956 10957 10958 10959 10960 10962 10964 10965 10967 10968 10967 10970 10973 10974 10977 10978 10978 10978 10978 10978 10980 10980 10980 10979 10979 10979 10980 10982 10983 10983 10984 10983 10983 10983 10982 10982 10981 10980 10979 10979 10977 10976 10974 10973 10972 10971 10971 10971 10971 10971 10972 10972 10972 10973 10974 10974 10974 10974 10974 10975 10975 10975 10975 10976 10976 10977 10977 10978 10978 10978
10938 10938 10938 10938 10937 10937 10938 10938 10939 10939 10938 10939 10940 10941 10942 10942 10944 10946 10948 10950 10951 10953 10954 10956 10958 10959 10961 10962 10962 10964 10967 10969 10971 10974 10975 10975 10975 10975 10976 10977 10977 10977 10977 10977 10977 10979 10980 10981 10982 10982 10982 10982 10982 10982 10981 10980 10979 10979 10978 10977 10975 10974 10973 10972 10971 10971 10971 10971 10971 10972 10972 10973 10973 10973 10973 10974 10974 10974 10974 10974 10975 10975 10976 10977 10978 10978 10979 10979
10932 10932 10932 10932 10931 10931 10931 10932 10932 10932 10932 10932 10933 10933 10934 10935 10936 10937 10939 10941 10944 10945 10947 10949 10951 10953 10956 10956 10956 10958 10961 10963 10966 10969 10971 10972 10972 10972 10973 10974 10974 10974 10975 10974 10974 10976 10977 10978 10980 10981 10981 10981 10981 10981 10981 10980 10979 10979 10978 10978 10977 10975 10973 10973 10972 10972 10971 10972 10972 10972 10972 10973 10973 10972 10973 10973 10973 10973 10974 10974 10975 10975 10976 10978 10979 10980 10980 10980
10926 10927 10927 10926 10925 10925 10925 10925 10925 10925 10925 10925 10926 10926 10926 10927 10928 10929 10931 10933 10935 10938 10940 10942 10944 10946 10949 10950 10951 10952 10953 10957 10960 10963 10966 10967 10969 10969 10969 10970 10971 10972 10972 10972 10972 10972 10974 10975 10977 10978 10979 10979 10979 10980 10980 10980 10979 10978 10978 10978 10977 10975 10974 10974 10974 10973 10973 10973 10973 10973 10973 10973 10973 10973 10973 10973 10973 10974 10974 10974 10975 10976 10977 10979 10980 10981 10981 10981
10922 10922 10922 10921 10920 10919 10918 10918 10918 10918 10918 10918 10919 10919 10919 10920 10921 10922 10922 10923 10926 10929 10932 10934 10935 10939 10941 10943 10945 10945 10946 10949 10954 10957 10960 10962 10964 10965 10965 10966 10967 10968 10969 10969 10968 10969 10970 10972 10974 10976 10976 10977 10978 10978 10979 10979 10979 10978 10977 10977 10977 10976 10975 10974 10974 10975 10975 10975 10975 10974 10974 10974 10974 10974 10973 10973 10973 10974 10974 10975 10976 10977 10979 10980 10982 10983 10983 10983
10917 10917 10917 10917 10916 10914 10913 10913 10912 10912 10912 10912 10912 10913 10913 10912 10914 10914 10914 10915 10917 10920 10924 10925 10927 10931 10933 10935 10938 10938 10939 10942 10946 10950 10953 10956 10958 10960 10961 10962 10963 10964 10965 10966 10965 10966 10966 10968 10972 10972 10972 10974 10976 10976 10977 10978 10978 10978 10977 10976 10976 10976 10976 10975 10975 10975 10976 10976 10976 10976 10975 10975 10975 10975 10974 10974 10975 10975 10975 10976 10977 10978 10980 10981 10982 10983 10984 10984
10912 10912 10912 10912 10912 10910 10909 10908 10907 10907 10907 10907 10906 10906 10907 10906 10907 10907 10906 10908 10910 10912 10915 10917 10918 10921 10925 10927 10930 10931 10932 10935 10938 10942 10946 10948 10951 10954 10956 10957 10958 10960 10962 10962 10962 10962 10962 10965 10968 10967 10967 10970 10973 10974 10975 10975 10976 10976 10976 10976 10975 10975 10976 10976 10975 10975 10976 10977 10977 10976 10976 10976 10976 10975 10974 10975 10976 10976 10976 10976 10977 10979 10980 10981 10982 10984 10984 10985
10907 10907 10907 10907 10908 10906 10904 10904 10903 10902 10901 10902 10901 10901 10901 10901 10901 10901 10900 10901 10903 10904 10906 10908 10909 10912 10916 10919 10920 10922 10925 10928 10930 10933 10937 10940 10944 10947 10949 10952 10953 10955 10956 10957 10958 10959 10960 10963 10963 10961 10962 10966 10970 10972 10972 10973 10974 10975 10975 10975 10974 10974 10975 10975 10975 10975 10975 10976 10977 10977 10977 10976 10976 10976 10975 10975 10976 10977 10977 10977 10977 10979 10980 10981 10983 10984 10985 10985
10902 10902 10901 10902 10903 10902 10900 10899 10898 10897 10896 10896 10896 10896 10896 10896 10896 10896 10895 10895 10897 10899 10898 10900 10902 10903 10908 10911 10911 10912 10916 10920 10923 10925 10928 10932 10936 10939 10942 10945 10948 10949 10950 10953 10956 10957 10958 10959 10957 10955 10957 10961 10966 10969 10970 10970 10971 10972 10973 10974 10973 10973 10973 10974 10974 10975 10975 10975 10976 10976 10976 10976 10977 10976 10976 10976 10976 10977 10977 10977 10977 10978 10980 10981 10982 10984 10985 10986
10897 10896 10896 10896 10897 10897 10896 10894 10893 10892 10891 10891 10890 10891 10891 10891 10891 10891 10891 10889 10890 10894 10893 10893 10894 10894 10899 10903 10902 10904 10907 10910 10915 10917 10919 10923 10927 10930 10935 10938 10940 10943 10946 10950 10952 10953 10954 10952 10949 10949 10952 10957 10961 10965 10966 10967 10968 10969 10970 10972 10972 10971 10972 10972 10973 10974 10975 10975 10975 10975 10976 10976 10976 10977 10976 10976 10976 10977 10977 10978 10978 10978 10979 10980 10982 10983 10984 10986
10892 10891 10890 10890 10890 10892 10891 10889 10889 10887 10886 10886 10885 10886 10885 10885 10886 10886 10886 10885 10885 10888 10889 10888 10887 10887 10891 10893 10894 10897 10898 10901 10906 10909 10911 10913 10917 10923 10927 10929 10933 10938 10941 10943 10946 10948 10949 10945 10943 10945 10948 10953 10957 10960 10963 10964 10965 10966 10967 10968 10969 10969 10970 10971 10971 10972 10973 10974 10974 10974 10975 10975 10976 10976 10976 10976 10976 10976 10977 10977 10978 10978 10979 10980 10981 10983 10984 10985
10887 10886 10884 10884 10884 10886 10886 10885 10884 10882 10881 10881 10880 10880 10880 10880 10880 10880 10881 10882 10880 10881 10884 10885 10882 10881 10883 10885 10887 10888 10890 10893 10898 10901 10901 10903 10909 10914 10917 10921 10927 10931 10933 10935 10939 10942 10943 10940 10940 10943 10944 10948 10952 10955 10959 10961 10961 10962 10963 10965 10966 10967 10968 10969 10970 10971 10971 10972 10972 10973 10974 10974 10974 10975 10975 10975 10976 10976 10976 10977 10978 10979 10979 10980 10982 10982 10984 10985
10882 10880 10878 10877 10878 10879 10881 10881 10878 10877 10876 10875 10875 10875 10875 10875 10875 10875 10876 10877 10877 10875 10877 10880 10879 10877 10876 10878 10880 10880 10884 10887 10889 10892 10893 10894 10901 10905 10909 10913 10918 10921 10924 10928 10932 10937 10938 10935 10937 10940 10939 10941 10946 10950 10954 10957 10957 10958 10960 10960 10961 10963 10965 10967 10967 10968 10969 10969 10970 10971 10972 10973 10973 10973 10974 10974 10975 10975 10976 10977 10978 10978 10979 10980 10982 10983 10984 10984
10876 10875 10872 10871 10871 10871 10874 10875 10873 10872 10871 10869 10869 10870 10870 10870 10869 10869 10869 10871 10873 10871 10869 10872 10874 10873 10872 10873 10873 10873 10878 10879 10880 10885 10886 10886 10891 10896 10900 10905 10907 10911 10915 10920 10926 10931 10930 10929 10934 10935 10933 10935 10941 10945 10948 10951 10953 10955 10955 10955 10956 10959 10962 10963 10964 10965 10966 10967 10968 10969 10970 10971 10972 10972 10973 10973 10974 10974 10975 10976 10977 10978 10979 10979 10981 10983 10983 10984
10869 10869 10867 10864 10864 10864 10864 10868 10868 10867 10865 10863 10863 10864 10864 10864 10863 10863 10864 10866 10869 10866 10863 10864 10867 10868 10868 10868 10867 10869 10872 10872 10874 10879 10878 10878 10883 10888 10892 10895 10898 10901 10907 10914 10920 10922 10920 10924 10929 10927 10925 10930 10934 10938 10941 10944 10948 10949 10948 10949 10951 10954 10958 10960 10960 10961 10963 10964 10966 10967 10968 10970 10970 10971 10972 10972 10973 10974 10974 10975 10976 10977 10978 10978 10979 10982 10983 10983
10862 10862 10860 10857 10857 10857 10856 10858 10861 10861 10859 10857 10857 10857 10857 10857 10857 10858 10858 10861 10863 10860 10858 10857 10859 10861 10862 10862 10862 10864 10866 10866 10869 10871 10870 10871 10875 10879 10882 10885 10889 10892 10899 10906 10910 10911 10914 10919 10922 10920 10922 10926 10927 10930 10935 10938 10942 10942 10941 10945 10947 10949 10953 10955 10956 10957 10959 10961 10964 10965 10966 10967 10968 10969 10970 10970 10971 10972 10973 10974 10975 10975 10976 10976 10977 10979 10981 10982
10854 10854 10853 10850 10848 10848 10848 10849 10852 10853 10852 10852 10850 10850 10850 10850 10850 10851 10853 10856 10854 10853 10854 10851 10852 10854 10854 10855 10857 10859 10861 10861 10864 10864 10863 10865 10867 10869 10872 10876 10881 10884 10889 10896 10899 10902 10906 10910 10914 10917 10920 10921 10919 10923 10929 10933 10935 10935 10936 10941 10943 10945 10948 10950 10952 10953 10955 10959 10962 10962 10963 10963 10964 10966 10967 10968 10969 10970 10972 10972 10973 10974 10974 10974 10975 10976 10978 10980
10845 10845 10845 10843 10840 10838 10839 10840 10842 10842 10844 10845 10843 10842 10843 10843 10844 10844 10847 10848 10844 10845 10849 10844 10844 10847 10847 10848 10851 10853 10855 10855 10858 10858 10857 10858 10859 10861 10863 10866 10872 10875 10879 10886 10889 10891 10896 10902 10908 10910 10911 10911 10911 10916 10923 10926 10927 10928 10932 10937 10939 10940 10942 10946 10948 10949 10953 10958 10959 10959 10959 10960 10961 10963 10964 10964 10966 10968 10969 10970 10971 10971 10972 10973 10973 10974 10975 10977
10837 10836 10836 10835 10832 10828 10829 10830 10830 10832 10835 10835 10834 10835 10836 10836 10839 10840 10839 10838 10835 10838 10842 10837 10836 10839 10839 10842 10844 10846 10847 10848 10851 10852 10851 10852 10854 10856 10856 10857 10863 10866 10870 10876 10877 10880 10888 10895 10899 10900 10901 10904 10904 10908 10915 10919 10920 10922 10925 10931 10936 10936 10937 10942 10945 10947 10951 10955 10955 10954 10955 10957 10958 10958 10959 10961 10964 10966 10966 10967 10968 10969 10970 10971 10971 10972 10973 10974
10827 10827 10825 10826 10825 10820 10818 10820 10819 10821 10825 10825 10824 10826 10826 10829 10835 10834 10830 10828 10827 10830 10833 10830 10829 10830 10831 10834 10836 10838 10840 10840 10843 10845 10845 10846 10848 10850 10850 10850 10854 10857 10860 10864 10867 10871 10879 10885 10890 10893 10896 10899 10900 10902 10909 10913 10913 10916 10918 10924 10931 10931 10933 10939 10942 10944 10947 10949 10949 10947 10948 10953 10954 10953 10956 10958 10960 10961 10963 10964 10965 10966 10967 10969 10969 10971 10971 10972
10816 10816 10815 10815 10815 10812 10808 10808 10808 10808 10812 10814 10814 10815 10818 10825 10829 10824 10821 10821 10818 10820 10823 10822 10822 10821 10823 10826 10826 10830 10833 10832 10834 10837 10837 10839 10842 10844 10845 10844 10846 10848 10848 10853 10859 10863 10868 10876 10883 10885 10886 10891 10893 10896 10901 10902 10903 10908 10909 10913 10920 10924 10929 10934 10936 10939 10941 10941 10942 10940 10944 10951 10951 10948 10951 10953 10955 10957 10959 10960 10962 10963 10964 10966 10968 10968 10969 10969
10804 10804 10804 10804 10804 10803 10799 10797 10797 10795 10798 10802 10803 10804 10812 10819 10818 10812 10813 10812 10810 10811 10813 10813 10815 10813 10815 10817 10817 10821 10825 10823 10825 10829 10829 10831 10834 10836 10838 10838 10839 10840 10840 10844 10851 10855 10858 10866 10872 10873 10875 10882 10885 10887 10888 10888 10895 10901 10898 10900 10912 10920 10925 10927 10929 10932 10931 10932 10935 10938 10942 10946 10944 10943 10945 10949 10952 10953 10955 10957 10959 10959 10961 10963 10964 10965 10966 10967
10792 10791 10792 10792 10792 10792 10788 10786 10785 10783 10784 10787 10789 10797 10806 10808 10805 10801 10802 10802 10802 10803 10802 10804 10807 10805 10806 10809 10808 10812 10816 10814 10816 10821 10821 10822 10826 10828 10830 10832 10832 10834 10834 10835 10840 10845 10850 10855 10859 10863 10868 10875 10878 10877 10877 10880 10890 10894 10888 10896 10911 10915 10915 10918 10921 10923 10923 10927 10933 10935 10937 10940 10939 10939 10941 10945 10948 10949 10951 10955 10955 10954 10956 10959 10960 10961 10962 10962
10779 10778 10777 10778 10780 10779 10776 10774 10771 10770 10770 10771 10778 10790 10796 10794 10793 10792 10790 10791 10792 10792 10792 10794 10797 10796 10796 10800 10800 10803 10806 10806 10807 10813 10814 10814 10817 10820 10822 10824 10825 10827 10827 10826 10828 10834 10841 10844 10848 10854 10859 10864 10866 10866 10868 10873 10881 10883 10883 10894 10903 10902 10904 10910 10914 10915 10918 10926 10931 10930 10932 10934 10936 10936 10936 10940 10943 10945 10948 10950 10950 10950 10951 10954 10956 10957 10958 10959
10767 10764 10761 10765 10767 10763 10761 10759 10756 10757 10756 10757 10767 10779 10782 10780 10781 10780 10777 10777 10780 10782 10784 10785 10785 10787 10788 10791 10792 10791 10795 10798 10799 10803 10805 10806 10808 10811 10813 10815 10818 10820 10819 10818 10818 10824 10832 10834 10838 10845 10850 10852 10855 10856 10859 10866 10873 10877 10883 10890 10890 10891 10898 10904 10907 10911 10917 10923 10925 10925 10926 10928 10932 10932 10930 10934 10939 10941 10945 10945 10945 10946 10947 10949 10951 10952 10954 10956
10754 10750 10746 10752 10752 10745 10747 10746 10742 10741 10740 10745 10757 10763 10764 10765 10766 10767 10765 10765 10766 10771 10776 10775 10773 10775 10778 10782 10782 10780 10784 10790 10791 10792 10796 10798 10799 10802 10806 10807 10810 10812 10811 10810 10811 10815 10821 10825 10828 10833 10839 10840 10842 10848 10855 10863 10869 10873 10877 10880 10879 10884 10892 10897 10902 10908 10912 10915 10917 10920 10921 10924 10929 10928 10924 10928 10934 10938 10941 10940 10938 10942 10944 10945 10946 10948 10950 10952
10739 10735 10730 10737 10736 10727 10730 10731 10727 10727 10727 10732 10742 10745 10746 10749 10750 10752 10754 10753 10752 10758 10765 10765 10760 10763 10768 10771 10772 10772 10773 10777 10781 10783 10786 10789 10789 10792 10798 10799 10799 10802 10802 10802 10804 10805 10811 10817 10818 10820 10827 10832 10836 10846 10855 10858 10862 10864 10867 10872 10874 10877 10883 10888 10896 10901 10903 10907 10911 10914 10917 10921 10925 10922 10919 10922 10928 10933 10936 10935 10934 10937 10939 10939 10941 10943 10945 10947
10721 10719 10713 10720 10720 10710 10709 10712 10712 10713 10713 10717 10725 10727 10728 10731 10732 10735 10739 10740 10739 10744 10751 10751 10749 10752 10756 10758 10761 10764 10762 10764 10770 10774 10775 10778 10780 10782 10788 10789 10789 10792 10795 10795 10797 10798 10802 10809 10809 10808 10819 10830 10833 10840 10846 10844 10846 10851 10854 10861 10866 10868 10872 10877 10886 10892 10896 10904 10908 10908 10913 10917 10917 10917 10915 10915 10920 10927 10931 10930 10930 10931 10933 10934 10937 10939 10940 10942
10702 10701 10696 10700 10703 10693 10687 10692 10697 10696 10696 10702 10708 10707 10708 10711 10715 10719 10722 10724 10727 10731 10734 10736 10738 10740 10743 10745 10749 10753 10752 10751 10758 10764 10764 10767 10771 10772 10776 10781 10782 10783 10787 10789 10789 10790 10791 10797 10801 10801 10811 10824 10825 10826 10831 10831 10833 10839 10843 10850 10855 10857 10858 10864 10876 10885 10890 10898 10902 10902 10908 10912 10910 10910 10909 10907 10912 10921 10925 10925 10925 10926 10927 10930 10932 10934 10935 10937
10683 10683 10677 10676 10681 10677 10669 10672 10678 10676 10678 10685 10687 10687 10688 10692 10697 10702 10705 10708 10713 10716 10717 10720 10725 10727 10729 10732 10735 10740 10741 10739 10746 10754 10753 10755 10759 10761 10765 10773 10775 10773 10776 10779 10779 10781 10783 10788 10795 10797 10800 10811 10816 10816 10821 10822 10824 10829 10836 10844 10849 10849 10853 10860 10870 10877 10880 10889 10895 10895 10902 10908 10904 10903 10904 10902 10906 10914 10918 10920 10921 10921 10923 10925 10927 10929 10930 10931
10661 10662 10658 10652 10654 10656 10652 10653 10656 10654 10657 10663 10666 10667 10670 10673 10678 10684 10687 10691 10696 10699 10700 10704 10709 10712 10715 10718 10720 10725 10728 10728 10734 10741 10742 10743 10746 10751 10756 10764 10767 10764 10763 10767 10769 10774 10778 10781 10786 10789 10791 10799 10807 10811 10814 10816 10820 10824 10831 10841 10844 10844 10851 10858 10861 10864 10871 10883 10887 10887 10897 10902 10896 10895 10899 10897 10899 10906 10911 10914 10915 10915 10918 10920 10922 10924 10924 10924
10639 10638 10637 10630 10627 10631 10632 10633 10634 10631 10633 10639 10643 10647 10652 10655 10660 10665 10668 10674 10679 10682 10683 10686 10691 10695 10699 10701 10704 10711 10715 10717 10722 10727 10730 10732 10734 10740 10747 10754 10758 10753 10751 10757 10762 10766 10772 10775 10778 10782 10786 10791 10798 10804 10806 10808 10810 10814 10820 10828 10833 10835 10843 10851 10850 10851 10866 10878 10877 10883 10894 10894 10888 10890 10893 10892 10893 10898 10904 10907 10908 10909 10912 10913 10915 10918 10918 10918
10616 10613 10611 10605 10600 10605 10610 10610 10607 10606 10608 10614 10622 10629 10633 10636 10640 10644 10649 10656 10661 10663 10665 10669 10673 10677 10682 10686 10690 10696 10701 10704 10708 10712 10717 10721 10723 10728 10736 10742 10745 10742 10743 10750 10754 10758 10764 10768 10771 10776 10778 10781 10785 10791 10794 10795 10795 10800 10806 10813 10819 10823 10830 10836 10835 10840 10858 10867 10866 10877 10887 10882 10880 10885 10886 10887 10889 10890 10893 10897 10900 10903 10905 10907 10911 10913 10911 10912
10588 10588 10586 10579 10574 10580 10585 10583 10580 10580 10585 10592 10600 10607 10611 10614 10618 10623 10628 10636 10642 10643 10645 10650 10654 10659 10666 10670 10674 10679 10685 10689 10693 10698 10705 10709 10711 10716 10724 10729 10731 10732 10738 10743 10744 10748 10755 10760 10764 10768 10769 10771 10774 10778 10783 10784 10784 10791 10799 10803 10807 10812 10816 10821 10824 10835 10849 10851 10855 10869 10874 10870 10875 10881 10880 10881 10883 10882 10883 10887 10892 10896 10898 10902 10906 10906 10904 10906
10557 10559 10558 10553 10549 10553 10558 10557 10555 10555 10559 10566 10573 10581 10587 10590 10595 10601 10607 10613 10619 10621 10624 10630 10636 10642 10648 10652 10656 10662 10668 10673 10678 10685 10691 10695 10699 10704 10711 10716 10719 10724 10731 10734 10734 10739 10746 10751 10756 10759 10761 10763 10764 10767 10773 10774 10775 10783 10790 10793 10796 10801 10806 10811 10819 10831 10836 10837 10847 10860 10860 10861 10870 10873 10872 10875 10876 10874 10873 10876 10883 10887 10891 10895 10898 10897 10898 10902
10526 10527 10527 10525 10523 10525 10528 10530 10531 10530 10531 10537 10545 10554 10561 10565 10570 10577 10583 10589 10594 10599 10605 10612 10617 10621 10626 10632 10639 10645 10653 10659 10665 10672 10677 10681 10686 10692 10698 10703 10709 10715 10722 10724 10724 10729 10738 10744 10746 10749 10753 10755 10753 10757 10763 10766 10768 10774 10780 10784 10786 10789 10796 10803 10813 10824 10826 10828 10840 10848 10848 10854 10860 10862 10867 10870 10868 10864 10861 10866 10873 10878 10882 10886 10887 10890 10894 10895
10494 10493 10495 10495 10495 10497 10497 10498 10502 10504 10505 10508 10516 10525 10533 10538 10543 10550 10558 10565 10573 10580 10584 10588 10592 10597 10606 10616 10625 10633 10641 10646 10649 10655 10660 10665 10673 10680 10685 10692 10700 10706 10711 10713 10715 10722 10731 10735 10736 10738 10743 10747 10747 10749 10753 10757 10761 10764 10769 10774 10777 10780 10787 10794 10804 10814 10816 10821 10833 10838 10839 10846 10852 10855 10861 10863 10860 10857 10854 10858 10864 10867 10872 10876 10879 10885 10889 10888
10462 10460 10463 10464 10466 10467 10467 10467 10471 10476 10479 10482 10487 10494 10502 10509 10515 10524 10535 10544 10552 10557 10557 10562 10573 10584 10594 10605 10614 10620 10622 10622 10627 10636 10643 10651 10662 10669 10674 10682 10690 10694 10699 10703 10707 10714 10721 10725 10726 10728 10734 10740 10741 10740 10743 10748 10750 10753 10759 10766 10770 10775 10779 10785 10796 10804 10808 10814 10823 10827 10834 10844 10848 10849 10853 10854 10855 10854 10851 10852 10855 10859 10863 10867 10872 10879 10882 10882
10433 10432 10436 10438 10439 10438 10438 10440 10443 10447 10453 10457 10459 10464 10474 10482 10487 10497 10509 10519 10526 10529 10533 10543 10558 10569 10579 10587 10591 10592 10594 10601 10614 10626 10635 10646 10654 10657 10662 10671 10679 10684 10690 10696 10700 10705 10712 10716 10717 10719 10726 10732 10732 10731 10735 10735 10735 10743 10754 10760 10762 10766 10770 10777 10786 10793 10799 10804 10810 10818 10830 10838 10837 10835 10842 10849 10852 10852 10850 10847 10845 10849 10855 10859 10864 10871 10873 10876